Location: Haulchin
(50.3172°N, 3.4360°E)
Time: 14:24:16
(UTC+00:00)

COBE Rocket - Pass Details

Date: 23 May 2024
Orbit: 678 x 776 km, 97.1° (Epoch: 18 June)

Event Time Altitude Azimuth Distance (km) Brightness Sun altitude
Rises 02:16:51 0° 7° (N) 3,123 8.3 -11.3°
Reaches altitude 10° 02:19:10 10° 2° (N) 2,214 7.3 -11.1°
Maximum altitude 02:23:47 45° 291° (WNW) 1,001 4.5 -10.7°
Enters shadow 02:27:51 14° 222° (SW) 2,020 5.5 -10.3°
